Location: Newark
(0.5300°S, 127.4800°E)
Time: 07:46:10
(UTC+00:00)

Vanguard 3 - Pass Details

Date: 21 September 2019
Orbit: 508 x 3262 km, 33.3° (Epoch: 23 October)

Event Time Altitude Azimuth Distance (km) Brightness Sun altitude
Rises 17:38:36 0° 205° (SSW) 3,096 - -56.1°
Reaches altitude 10° 17:41:07 10° 189° (S) 2,423 - -55.5°
Maximum altitude 17:45:37 23° 137° (SE) 2,127 - -54.4°
Exits shadow 17:49:00 18° 104° (ESE) 2,771 10.2 -53.5°
Drops below altitude 10° 17:52:12 10° 88° (E) 3,689 10.9 -52.7°
Sets 17:57:09 0° 76° (ENE) 5,236 11.9 -51.5°
